Time,TemperatureF,DewpointF,PressureIn,WindDirection,WindDirectionDegrees,WindSpeedMPH,WindSpeedGustMPH,Humidity,HourlyPrecipIn,Conditions,Clouds,dailyrainin,SoftwareType,DateUTC
2013-10-04 00:00:00,63.5,34.5,29.76,NW,315,0.0,1.6,34,0.00,,,0.00,WUHU216HW,2013-10-04 07:00:00,
2013-10-04 00:05:00,63.4,34.3,29.76,North,0,0.4,2.2,34,0.00,,,0.00,WUHU216HW,2013-10-04 07:05:00,
2013-10-04 00:10:00,63.4,34.3,29.76,NNW,338,0.2,2.2,34,0.00,,,0.00,WUHU216HW,2013-10-04 07:10:00,
2013-10-04 00:15:00,63.2,33.4,29.76,West,270,0.4,1.1,33,0.00,,,0.00,WUHU216HW,2013-10-04 07:15:00,
2013-10-04 00:20:00,63.4,33.6,29.76,NE,45,0.7,1.1,33,0.00,,,0.00,WUHU216HW,2013-10-04 07:20:00,
2013-10-04 00:25:00,63.2,33.4,29.76,ENE,68,0.2,1.1,33,0.00,,,0.00,WUHU216HW,2013-10-04 07:25:00,
2013-10-04 00:30:00,63.2,32.7,29.76,NNW,338,0.2,1.3,32,0.00,,,0.00,WUHU216HW,2013-10-04 07:30:00,
2013-10-04 00:35:00,63.4,32.1,29.76,NNW,338,0.0,1.8,31,0.00,,,0.00,WUHU216HW,2013-10-04 07:35:00,
2013-10-04 00:40:00,63.7,31.8,29.76,NNW,338,0.2,1.8,30,0.00,,,0.00,WUHU216HW,2013-10-04 07:40:00,
2013-10-04 00:45:00,64.1,32.0,29.76,NNW,338,1.1,1.8,30,0.00,,,0.00,WUHU216HW,2013-10-04 07:45:00,
2013-10-04 00:50:00,64.6,31.6,29.76,NW,315,1.8,2.7,29,0.00,,,0.00,WUHU216HW,2013-10-04 07:50:00,
2013-10-04 00:55:00,65.0,32.9,29.77,NNW,338,0.2,2.7,30,0.00,,,0.00,WUHU216HW,2013-10-04 07:55:00,
2013-10-04 01:00:00,65.0,32.9,29.77,NNW,338,0.7,3.4,30,0.00,,,0.00,WUHU216HW,2013-10-04 08:00:00,
2013-10-04 01:05:00,65.2,32.0,29.77,West,270,1.8,3.4,29,0.00,,,0.00,WUHU216HW,2013-10-04 08:05:00,
2013-10-04 01:10:00,65.2,33.0,29.77,NW,315,0.4,3.1,30,0.00,,,0.00,WUHU216HW,2013-10-04 08:10:00,
2013-10-04 01:15:00,65.2,33.0,29.77,North,0,1.8,2.0,30,0.00,,,0.00,WUHU216HW,2013-10-04 08:15:00,
2013-10-04 01:20:00,65.2,33.0,29.77,NNW,338,0.7,1.8,30,0.00,,,0.00,WUHU216HW,2013-10-04 08:20:00,
2013-10-04 01:25:00,65.2,32.0,29.77,North,0,1.6,1.8,29,0.00,,,0.00,WUHU216HW,2013-10-04 08:25:00,
2013-10-04 01:30:00,65.2,33.0,29.77,NNW,338,0.2,1.8,30,0.00,,,0.00,WUHU216HW,2013-10-04 08:30:00,
2013-10-04 01:35:00,65.2,32.0,29.77,NNW,338,0.7,3.1,29,0.00,,,0.00,WUHU216HW,2013-10-04 08:35:00,
2013-10-04 01:40:00,65.2,32.0,29.77,NNW,338,0.9,3.1,29,0.00,,,0.00,WUHU216HW,2013-10-04 08:40:00,
2013-10-04 01:45:00,65.2,32.0,29.77,NNW,338,0.4,2.2,29,0.00,,,0.00,WUHU216HW,2013-10-04 08:45:00,
2013-10-04 01:50:00,65.2,32.0,29.77,NNE,23,0.9,4.0,29,0.00,,,0.00,WUHU216HW,2013-10-04 08:50:00,
2013-10-04 01:55:00,65.2,32.0,29.77,NNW,338,0.4,4.0,29,0.00,,,0.00,WUHU216HW,2013-10-04 08:55:00,
2013-10-04 02:00:00,65.0,31.9,29.77,North,0,2.5,2.5,29,0.00,,,0.00,WUHU216HW,2013-10-04 09:00:00,
2013-10-04 02:05:00,64.8,31.8,29.77,North,0,0.0,2.5,29,0.00,,,0.00,WUHU216HW,2013-10-04 09:05:00,
2013-10-04 02:10:00,64.6,31.6,29.77,North,0,0.7,2.7,29,0.00,,,0.00,WUHU216HW,2013-10-04 09:10:00,
2013-10-04 02:15:00,64.4,32.4,29.77,North,0,1.3,2.7,30,0.00,,,0.00,WUHU216HW,2013-10-04 09:15:00,
2013-10-04 02:20:00,64.4,31.4,29.77,NNE,23,0.2,3.6,29,0.00,,,0.00,WUHU216HW,2013-10-04 09:20:00,
2013-10-04 02:25:00,64.4,31.4,29.77,North,0,0.2,3.6,29,0.00,,,0.00,WUHU216HW,2013-10-04 09:25:00,
2013-10-04 02:30:00,64.6,31.6,29.77,NNW,338,0.4,2.2,29,0.00,,,0.00,WUHU216HW,2013-10-04 09:30:00,
2013-10-04 02:35:00,64.6,31.6,29.77,NW,315,1.1,2.2,29,0.00,,,0.00,WUHU216HW,2013-10-04 09:35:00,
2013-10-04 02:40:00,64.4,32.4,29.77,WNW,293,0.0,1.8,30,0.00,,,0.00,WUHU216HW,2013-10-04 09:40:00,
2013-10-04 02:45:00,64.3,32.2,29.78,North,0,0.0,1.8,30,0.00,,,0.00,WUHU216HW,2013-10-04 09:45:00,
2013-10-04 02:50:00,63.9,31.0,29.77,West,270,2.2,2.2,29,0.00,,,0.00,WUHU216HW,2013-10-04 09:50:00,
2013-10-04 02:55:00,63.5,30.6,29.77,NNE,23,0.9,2.2,29,0.00,,,0.00,WUHU216HW,2013-10-04 09:55:00,
2013-10-04 03:00:00,63.5,30.6,29.78,WNW,293,0.7,2.2,29,0.00,,,0.00,WUHU216HW,2013-10-04 10:00:00,
2013-10-04 03:05:00,63.7,29.8,29.78,NNW,338,1.1,4.7,28,0.00,,,0.00,WUHU216HW,2013-10-04 10:05:00,
2013-10-04 03:10:00,63.9,30.0,29.78,NW,315,0.4,4.7,28,0.00,,,0.00,WUHU216HW,2013-10-04 10:10:00,
2013-10-04 03:15:00,64.1,29.2,29.77,North,0,1.1,3.4,27,0.00,,,0.00,WUHU216HW,2013-10-04 10:15:00,
2013-10-04 03:20:00,64.1,30.1,29.78,NNE,23,0.7,2.5,28,0.00,,,0.00,WUHU216HW,2013-10-04 10:20:00,
2013-10-04 03:25:00,64.1,29.2,29.78,NNE,23,2.7,2.7,27,0.00,,,0.00,WUHU216HW,2013-10-04 10:25:00,
2013-10-04 03:30:00,64.1,29.2,29.78,ENE,68,0.4,3.4,27,0.00,,,0.00,WUHU216HW,2013-10-04 10:30:00,
2013-10-04 03:35:00,64.1,30.1,29.78,WNW,293,1.8,3.4,28,0.00,,,0.00,WUHU216HW,2013-10-04 10:35:00,
2013-10-04 03:40:00,63.9,30.0,29.77,ENE,68,0.7,4.7,28,0.00,,,0.00,WUHU216HW,2013-10-04 10:40:00,
2013-10-04 03:45:00,63.9,30.0,29.78,ENE,68,0.7,4.7,28,0.00,,,0.00,WUHU216HW,2013-10-04 10:45:00,
2013-10-04 03:50:00,63.7,29.8,29.77,North,0,0.4,2.9,28,0.00,,,0.00,WUHU216HW,2013-10-04 10:50:00,
2013-10-04 03:55:00,63.9,29.0,29.77,NNW,338,0.4,3.8,27,0.00,,,0.00,WUHU216HW,2013-10-04 10:55:00,
2013-10-04 04:00:00,63.9,29.0,29.77,West,270,3.4,3.8,27,0.00,,,0.00,WUHU216HW,2013-10-04 11:00:00,
2013-10-04 04:05:00,64.1,29.2,29.77,NW,315,1.6,3.4,27,0.00,,,0.00,WUHU216HW,2013-10-04 11:05:00,
2013-10-04 04:10:00,63.9,30.0,29.77,NNW,338,2.0,3.4,28,0.00,,,0.00,WUHU216HW,2013-10-04 11:10:00,
2013-10-04 04:15:00,63.9,29.0,29.78,NNE,23,1.1,4.7,27,0.00,,,0.00,WUHU216HW,2013-10-04 11:15:00,
2013-10-04 04:20:00,63.9,29.0,29.77,ENE,68,0.7,4.7,27,0.00,,,0.00,WUHU216HW,2013-10-04 11:20:00,
2013-10-04 04:25:00,63.7,28.8,29.77,North,0,0.9,3.6,27,0.00,,,0.00,WUHU216HW,2013-10-04 11:25:00,
2013-10-04 04:30:00,63.9,29.0,29.77,North,0,0.7,3.6,27,0.00,,,0.00,WUHU216HW,2013-10-04 11:30:00,
2013-10-04 04:35:00,63.9,29.0,29.78,North,0,1.8,2.5,27,0.00,,,0.00,WUHU216HW,2013-10-04 11:35:00,
2013-10-04 04:40:00,63.7,28.8,29.77,NNW,338,1.3,2.5,27,0.00,,,0.00,WUHU216HW,2013-10-04 11:40:00,
2013-10-04 04:45:00,63.7,28.8,29.77,NNW,338,1.1,2.7,27,0.00,,,0.00,WUHU216HW,2013-10-04 11:45:00,
2013-10-04 04:50:00,63.7,28.8,29.78,NE,45,1.6,5.6,27,0.00,,,0.00,WUHU216HW,2013-10-04 11:50:00,
2013-10-04 04:55:00,63.7,28.8,29.78,NE,45,2.7,5.6,27,0.00,,,0.00,WUHU216HW,2013-10-04 11:55:00,
2013-10-04 05:00:00,63.7,29.8,29.79,NNW,338,1.1,3.6,28,0.00,,,0.00,WUHU216HW,2013-10-04 12:00:00,
2013-10-04 05:05:00,63.5,28.6,29.79,North,0,0.9,2.2,27,0.00,,,0.00,WUHU216HW,2013-10-04 12:05:00,
2013-10-04 05:10:00,63.4,28.5,29.79,NNE,23,2.2,2.7,27,0.00,,,0.00,WUHU216HW,2013-10-04 12:10:00,
2013-10-04 05:15:00,63.2,29.4,29.79,NNW,338,1.1,3.4,28,0.00,,,0.00,WUHU216HW,2013-10-04 12:15:00,
2013-10-04 05:20:00,63.0,29.2,29.79,East,90,0.0,3.4,28,0.00,,,0.00,WUHU216HW,2013-10-04 12:20:00,
2013-10-04 05:25:00,62.8,30.0,29.79,ENE,68,0.0,2.9,29,0.00,,,0.00,WUHU216HW,2013-10-04 12:25:00,
2013-10-04 05:30:00,62.3,29.5,29.79,ENE,68,0.0,1.1,29,0.00,,,0.00,WUHU216HW,2013-10-04 12:30:00,
2013-10-04 05:35:00,61.6,28.9,29.80,ENE,68,0.0,0.0,29,0.00,,,0.00,WUHU216HW,2013-10-04 12:35:00,
2013-10-04 05:40:00,61.2,29.5,29.80,ENE,68,0.0,0.0,30,0.00,,,0.00,WUHU216HW,2013-10-04 12:40:00,
2013-10-04 05:45:00,60.7,29.7,29.80,ENE,68,0.0,0.0,31,0.00,,,0.00,WUHU216HW,2013-10-04 12:45:00,
2013-10-04 05:50:00,60.1,29.4,29.80,ENE,68,0.0,0.0,31,0.00,,,0.00,WUHU216HW,2013-10-04 12:50:00,
2013-10-04 05:55:00,59.8,29.7,29.80,ENE,68,0.0,1.1,32,0.00,,,0.00,WUHU216HW,2013-10-04 12:55:00,
2013-10-04 06:00:00,59.4,30.2,29.80,ENE,68,0.0,1.1,33,0.00,,,0.00,WUHU216HW,2013-10-04 13:00:00,
2013-10-04 06:05:00,58.9,29.7,29.81,ENE,68,0.0,0.4,33,0.00,,,0.00,WUHU216HW,2013-10-04 13:05:00,
2013-10-04 06:10:00,58.5,30.1,29.81,ENE,68,0.0,0.0,34,0.00,,,0.00,WUHU216HW,2013-10-04 13:10:00,
2013-10-04 06:15:00,58.0,29.5,29.81,ENE,68,0.0,0.0,34,0.00,,,0.00,WUHU216HW,2013-10-04 13:15:00,
2013-10-04 06:20:00,57.8,30.1,29.81,ENE,68,0.0,0.0,35,0.00,,,0.00,WUHU216HW,2013-10-04 13:20:00,
2013-10-04 06:25:00,57.4,30.5,29.81,ENE,68,0.0,0.0,36,0.00,,,0.00,WUHU216HW,2013-10-04 13:25:00,
2013-10-04 06:30:00,57.2,30.3,29.81,ENE,68,0.0,0.0,36,0.00,,,0.00,WUHU216HW,2013-10-04 13:30:00,
2013-10-04 06:35:00,57.1,30.9,29.81,ENE,68,0.0,0.0,37,0.00,,,0.00,WUHU216HW,2013-10-04 13:35:00,
2013-10-04 06:40:00,56.7,30.5,29.81,ENE,68,0.0,0.0,37,0.00,,,0.00,WUHU216HW,2013-10-04 13:40:00,
2013-10-04 06:45:00,56.5,31.1,29.81,ENE,68,0.0,0.0,38,0.00,,,0.00,WUHU216HW,2013-10-04 13:45:00,
2013-10-04 06:50:00,56.5,31.1,29.82,ENE,68,0.0,0.0,38,0.00,,,0.00,WUHU216HW,2013-10-04 13:50:00,
2013-10-04 06:55:00,56.3,30.9,29.82,ENE,68,0.0,1.1,38,0.00,,,0.00,WUHU216HW,2013-10-04 13:55:00,
2013-10-04 07:00:00,56.2,31.4,29.82,ENE,68,0.2,1.1,39,0.00,,,0.00,WUHU216HW,2013-10-04 14:00:00,
2013-10-04 07:05:00,55.8,31.2,29.82,NNE,23,0.0,0.7,39,0.00,,,0.00,WUHU216HW,2013-10-04 14:05:00,
2013-10-04 07:10:00,55.8,31.2,29.82,NNE,23,0.0,0.2,39,0.00,,,0.00,WUHU216HW,2013-10-04 14:10:00,
2013-10-04 07:15:00,55.8,31.9,29.82,NNE,23,0.0,0.0,40,0.00,,,0.00,WUHU216HW,2013-10-04 14:15:00,
2013-10-04 07:20:00,55.6,31.7,29.82,NNE,23,0.0,0.4,40,0.00,,,0.00,WUHU216HW,2013-10-04 14:20:00,
2013-10-04 07:25:00,55.4,31.5,29.82,NNE,23,0.0,0.4,40,0.00,,,0.00,WUHU216HW,2013-10-04 14:25:00,
2013-10-04 07:30:00,55.4,31.5,29.83,NNE,23,0.0,0.0,40,0.00,,,0.00,WUHU216HW,2013-10-04 14:30:00,
2013-10-04 07:35:00,55.4,32.0,29.83,NNE,23,0.0,0.0,41,0.00,,,0.00,WUHU216HW,2013-10-04 14:35:00,
2013-10-04 07:40:00,55.8,32.4,29.82,NNW,338,0.0,0.0,41,0.00,,,0.00,WUHU216HW,2013-10-04 14:40:00,
2013-10-04 07:45:00,56.5,31.8,29.83,NNE,23,1.3,1.3,39,0.00,,,0.00,WUHU216HW,2013-10-04 14:45:00,
2013-10-04 07:50:00,57.6,31.3,29.82,NW,315,0.4,1.8,37,0.00,,,0.00,WUHU216HW,2013-10-04 14:50:00,
2013-10-04 07:55:00,58.7,32.3,29.83,NNE,23,0.0,1.8,37,0.00,,,0.00,WUHU216HW,2013-10-04 14:55:00,
2013-10-04 08:00:00,59.2,32.1,29.83,North,0,0.4,1.8,36,0.00,,,0.00,WUHU216HW,2013-10-04 15:00:00,
2013-10-04 08:05:00,59.4,32.2,29.83,NNW,338,1.1,1.8,36,0.00,,,0.00,WUHU216HW,2013-10-04 15:05:00,
2013-10-04 08:10:00,59.8,32.6,29.83,NNW,338,3.4,3.4,36,0.00,,,0.00,WUHU216HW,2013-10-04 15:10:00,
2013-10-04 08:15:00,60.3,31.6,29.84,NNE,23,0.4,3.4,34,0.00,,,0.00,WUHU216HW,2013-10-04 15:15:00,
2013-10-04 08:20:00,61.0,31.5,29.84,ENE,68,0.9,5.4,33,0.00,,,0.00,WUHU216HW,2013-10-04 15:20:00,
2013-10-04 08:25:00,61.6,31.2,29.84,NW,315,1.6,5.4,32,0.00,,,0.00,WUHU216HW,2013-10-04 15:25:00,
2013-10-04 08:30:00,62.1,31.8,29.85,North,0,0.2,1.8,32,0.00,,,0.00,WUHU216HW,2013-10-04 15:30:00,
2013-10-04 08:35:00,62.3,31.9,29.85,NW,315,0.9,1.8,32,0.00,,,0.00,WUHU216HW,2013-10-04 15:35:00,
2013-10-04 08:40:00,62.8,31.7,29.85,North,0,0.7,2.7,31,0.00,,,0.00,WUHU216HW,2013-10-04 15:40:00,
2013-10-04 08:45:00,63.2,32.7,29.85,NNW,338,1.8,2.7,32,0.00,,,0.00,WUHU216HW,2013-10-04 15:45:00,
2013-10-04 08:50:00,63.7,31.8,29.85,NW,315,1.6,5.4,30,0.00,,,0.00,WUHU216HW,2013-10-04 15:50:00,
2013-10-04 08:56:00,63.9,32.0,29.85,North,0,1.6,5.4,30,0.00,,,0.00,WUHU216HW,2013-10-04 15:56:00,
2013-10-04 09:01:00,64.3,32.2,29.85,North,0,0.4,3.6,30,0.00,,,0.00,WUHU216HW,2013-10-04 16:01:00,
2013-10-04 09:06:00,64.6,32.6,29.85,North,0,1.3,2.0,30,0.00,,,0.00,WUHU216HW,2013-10-04 16:06:00,
2013-10-04 09:11:00,65.0,32.9,29.85,SSE,158,0.4,2.0,30,0.00,,,0.00,WUHU216HW,2013-10-04 16:11:00,
2013-10-04 09:16:00,65.2,33.0,29.85,NNE,23,0.4,3.4,30,0.00,,,0.00,WUHU216HW,2013-10-04 16:16:00,
2013-10-04 09:21:00,65.5,33.4,29.85,NW,315,0.7,3.4,30,0.00,,,0.00,WUHU216HW,2013-10-04 16:21:00,
2013-10-04 09:26:00,65.9,33.7,29.85,WNW,293,1.3,2.5,30,0.00,,,0.00,WUHU216HW,2013-10-04 16:26:00,
2013-10-04 09:31:00,66.1,34.6,29.85,NNW,338,0.9,2.5,31,0.00,,,0.00,WUHU216HW,2013-10-04 16:31:00,
2013-10-04 09:36:00,66.2,34.0,29.85,North,0,1.1,1.8,30,0.00,,,0.00,WUHU216HW,2013-10-04 16:36:00,
2013-10-04 09:41:00,66.6,35.0,29.85,NNE,23,0.4,2.7,31,0.00,,,0.00,WUHU216HW,2013-10-04 16:41:00,
2013-10-04 09:46:00,67.0,34.6,29.85,WNW,293,2.5,2.7,30,0.00,,,0.00,WUHU216HW,2013-10-04 16:46:00,
2013-10-04 09:51:00,67.3,33.9,29.86,NW,315,1.3,2.5,29,0.00,,,0.00,WUHU216HW,2013-10-04 16:51:00,
2013-10-04 09:56:00,67.5,34.0,29.86,NNW,338,0.4,2.5,29,0.00,,,0.00,WUHU216HW,2013-10-04 16:56:00,
2013-10-04 10:01:00,67.9,34.3,29.86,NNW,338,1.8,2.0,29,0.00,,,0.00,WUHU216HW,2013-10-04 17:01:00,
2013-10-04 10:06:00,68.2,34.7,29.86,SW,225,0.7,2.5,29,0.00,,,0.00,WUHU216HW,2013-10-04 17:06:00,
2013-10-04 10:11:00,68.8,34.1,29.86,NNW,338,0.0,5.4,28,0.00,,,0.00,WUHU216HW,2013-10-04 17:11:00,
2013-10-04 10:16:00,69.3,32.6,29.86,NNW,338,2.5,5.4,26,0.00,,,0.00,WUHU216HW,2013-10-04 17:16:00,
2013-10-04 10:21:00,69.5,32.8,29.86,NNW,338,0.2,2.5,26,0.00,,,0.00,WUHU216HW,2013-10-04 17:21:00,
2013-10-04 10:26:00,69.8,33.0,29.86,NNW,338,0.4,2.5,26,0.00,,,0.00,WUHU216HW,2013-10-04 17:26:00,
2013-10-04 10:31:00,70.2,33.4,29.87,WNW,293,1.3,2.5,26,0.00,,,0.00,WUHU216HW,2013-10-04 17:31:00,
2013-10-04 10:36:00,70.6,33.7,29.86,NW,315,0.0,1.3,26,0.00,,,0.00,WUHU216HW,2013-10-04 17:36:00,
2013-10-04 11:01:00,71.8,32.7,29.87,NW,315,1.8,2.5,24,0.00,,,0.00,WUHU216HW,2013-10-04 18:01:00,
2013-10-04 11:06:00,72.0,32.9,29.86,ESE,113,0.0,2.0,24,0.00,,,0.00,WUHU216HW,2013-10-04 18:06:00,
2013-10-04 11:11:00,72.4,32.1,29.86,North,0,1.3,2.0,23,0.00,,,0.00,WUHU216HW,2013-10-04 18:11:00,
2013-10-04 11:16:00,72.9,33.7,29.86,WSW,248,1.1,1.6,24,0.00,,,0.00,WUHU216HW,2013-10-04 18:16:00,
2013-10-04 11:21:00,73.1,32.8,29.86,NW,315,2.0,2.0,23,0.00,,,0.00,WUHU216HW,2013-10-04 18:21:00,
2013-10-04 11:26:00,73.3,33.0,29.86,NNW,338,0.7,2.0,23,0.00,,,0.00,WUHU216HW,2013-10-04 18:26:00,
2013-10-04 11:31:00,73.4,33.1,29.86,NW,315,0.9,2.0,23,0.00,,,0.00,WUHU216HW,2013-10-04 18:31:00,
2013-10-04 11:36:00,73.8,33.4,29.86,North,0,1.6,2.9,23,0.00,,,0.00,WUHU216HW,2013-10-04 18:36:00,
2013-10-04 11:41:00,74.3,32.9,29.87,NNE,23,0.9,3.4,22,0.00,,,0.00,WUHU216HW,2013-10-04 18:41:00,
2013-10-04 11:46:00,74.5,32.9,29.86,NNW,338,0.2,3.4,22,0.00,,,0.00,WUHU216HW,2013-10-04 18:46:00,
2013-10-04 11:51:00,74.9,33.3,29.86,WSW,248,2.2,2.7,22,0.00,,,0.00,WUHU216HW,2013-10-04 18:51:00,
2013-10-04 11:56:00,74.9,33.3,29.86,WNW,293,1.1,2.5,22,0.00,,,0.00,WUHU216HW,2013-10-04 18:56:00,
2013-10-04 12:01:00,75.4,33.7,29.86,North,0,3.4,5.8,22,0.00,,,0.00,WUHU216HW,2013-10-04 19:01:00,
2013-10-04 12:06:00,75.6,32.9,29.87,West,270,1.1,5.8,21,0.00,,,0.00,WUHU216HW,2013-10-04 19:06:00,
2013-10-04 12:11:00,75.6,33.8,29.86,NE,45,3.4,4.0,22,0.00,,,0.00,WUHU216HW,2013-10-04 19:11:00,
2013-10-04 12:16:00,76.1,34.3,29.86,ENE,68,3.6,3.6,22,0.00,,,0.00,WUHU216HW,2013-10-04 19:16:00,
2013-10-04 12:21:00,76.7,33.7,29.86,NNW,338,0.7,3.6,21,0.00,,,0.00,WUHU216HW,2013-10-04 19:21:00,
2013-10-04 12:26:00,76.7,33.7,29.86,WSW,248,1.6,3.6,21,0.00,,,0.00,WUHU216HW,2013-10-04 19:26:00,
2013-10-04 12:31:00,76.9,33.9,29.86,NW,315,1.8,3.8,21,0.00,,,0.00,WUHU216HW,2013-10-04 19:31:00,
2013-10-04 12:36:00,77.0,34.0,29.86,NW,315,1.1,3.8,21,0.00,,,0.00,WUHU216HW,2013-10-04 19:36:00,
2013-10-04 12:41:00,76.9,33.9,29.86,NW,315,0.2,2.2,21,0.00,,,0.00,WUHU216HW,2013-10-04 19:41:00,
2013-10-04 12:46:00,77.0,34.0,29.86,WNW,293,1.3,3.6,21,0.00,,,0.00,WUHU216HW,2013-10-04 19:46:00,
2013-10-04 12:51:00,77.8,34.6,29.86,North,0,2.2,3.6,21,0.00,,,0.00,WUHU216HW,2013-10-04 19:51:00,
2013-10-04 12:56:00,78.1,32.1,29.86,NW,315,1.1,3.1,19,0.00,,,0.00,WUHU216HW,2013-10-04 19:56:00,
2013-10-04 13:01:00,78.1,32.1,29.85,North,0,1.3,2.7,19,0.00,,,0.00,WUHU216HW,2013-10-04 20:01:00,
2013-10-04 13:06:00,78.5,35.1,29.85,NNW,338,1.8,4.3,21,0.00,,,0.00,WUHU216HW,2013-10-04 20:06:00,
2013-10-04 13:11:00,78.7,32.6,29.85,NW,315,3.4,4.3,19,0.00,,,0.00,WUHU216HW,2013-10-04 20:11:00,
2013-10-04 13:16:00,78.7,34.2,29.85,North,0,2.0,3.8,20,0.00,,,0.00,WUHU216HW,2013-10-04 20:16:00,
2013-10-04 13:21:00,78.8,32.7,29.84,North,0,2.0,4.0,19,0.00,,,0.00,WUHU216HW,2013-10-04 20:21:00,
2013-10-04 13:26:00,79.2,33.0,29.84,WNW,293,2.5,4.0,19,0.00,,,0.00,WUHU216HW,2013-10-04 20:26:00,
2013-10-04 13:31:00,79.2,33.0,29.84,NNW,338,1.1,4.5,19,0.00,,,0.00,WUHU216HW,2013-10-04 20:31:00,
2013-10-04 13:36:00,79.4,31.5,29.84,NNW,338,1.1,4.5,18,0.00,,,0.00,WUHU216HW,2013-10-04 20:36:00,
2013-10-04 13:41:00,79.6,31.7,29.84,WSW,248,2.9,3.6,18,0.00,,,0.00,WUHU216HW,2013-10-04 20:41:00,
2013-10-04 13:46:00,79.9,33.7,29.84,SSW,203,1.1,3.4,19,0.00,,,0.00,WUHU216HW,2013-10-04 20:46:00,
2013-10-04 13:51:00,80.6,32.6,29.84,WNW,293,0.9,3.4,18,0.00,,,0.00,WUHU216HW,2013-10-04 20:51:00,
2013-10-04 13:56:00,81.0,33.0,29.83,NNW,338,2.7,3.4,18,0.00,,,0.00,WUHU216HW,2013-10-04 20:56:00,
2013-10-04 14:01:00,81.2,33.0,29.83,West,270,1.6,3.4,18,0.00,,,0.00,WUHU216HW,2013-10-04 21:01:00,
2013-10-04 14:06:00,81.0,33.0,29.83,North,0,2.0,2.7,18,0.00,,,0.00,WUHU216HW,2013-10-04 21:06:00,
2013-10-04 14:11:00,81.2,33.0,29.83,WSW,248,1.1,3.1,18,0.00,,,0.00,WUHU216HW,2013-10-04 21:11:00,
2013-10-04 14:16:00,81.4,33.2,29.83,SW,225,1.1,5.4,18,0.00,,,0.00,WUHU216HW,2013-10-04 21:16:00,
2013-10-04 14:21:00,81.7,33.5,29.83,NNW,338,1.6,5.4,18,0.00,,,0.00,WUHU216HW,2013-10-04 21:21:00,
2013-10-04 14:26:00,81.7,33.5,29.83,NW,315,2.0,2.7,18,0.00,,,0.00,WUHU216HW,2013-10-04 21:26:00,
2013-10-04 14:31:00,82.3,33.9,29.83,ENE,68,1.1,3.4,18,0.00,,,0.00,WUHU216HW,2013-10-04 21:31:00,
2013-10-04 14:36:00,82.4,34.0,29.82,WNW,293,1.1,3.4,18,0.00,,,0.00,WUHU216HW,2013-10-04 21:36:00,
2013-10-04 14:41:00,82.4,34.0,29.83,NNW,338,0.4,4.5,18,0.00,,,0.00,WUHU216HW,2013-10-04 21:41:00,
2013-10-04 14:46:00,82.6,34.2,29.82,North,0,1.8,4.5,18,0.00,,,0.00,WUHU216HW,2013-10-04 21:46:00,
2013-10-04 14:51:00,82.6,34.2,29.82,North,0,1.1,3.1,18,0.00,,,0.00,WUHU216HW,2013-10-04 21:51:00,
2013-10-04 14:56:00,83.0,34.5,29.82,South,180,1.1,2.9,18,0.00,,,0.00,WUHU216HW,2013-10-04 21:56:00,
2013-10-04 15:01:00,83.3,33.0,29.82,NE,45,0.4,4.5,17,0.00,,,0.00,WUHU216HW,2013-10-04 22:01:00,
2013-10-04 15:06:00,83.5,34.9,29.82,ENE,68,1.8,4.5,18,0.00,,,0.00,WUHU216HW,2013-10-04 22:06:00,
2013-10-04 15:11:00,83.7,35.0,29.82,NW,315,0.2,2.7,18,0.00,,,0.00,WUHU216HW,2013-10-04 22:11:00,
2013-10-04 15:16:00,84.1,33.6,29.82,NNW,338,0.7,4.3,17,0.00,,,0.00,WUHU216HW,2013-10-04 22:16:00,
2013-10-04 15:21:00,83.7,31.6,29.82,NNW,338,0.7,4.7,16,0.00,,,0.00,WUHU216HW,2013-10-04 22:21:00,
2013-10-04 15:26:00,83.3,34.7,29.82,NE,45,1.3,4.7,18,0.00,,,0.00,WUHU216HW,2013-10-04 22:26:00,
2013-10-04 15:31:00,83.9,35.2,29.82,NNW,338,0.9,4.7,18,0.00,,,0.00,WUHU216HW,2013-10-04 22:31:00,
2013-10-04 15:36:00,83.9,33.5,29.82,NNW,338,4.0,4.0,17,0.00,,,0.00,WUHU216HW,2013-10-04 22:36:00,
2013-10-04 15:41:00,83.7,35.0,29.82,NW,315,3.6,4.0,18,0.00,,,0.00,WUHU216HW,2013-10-04 22:41:00,
2013-10-04 15:46:00,83.9,31.8,29.82,North,0,0.0,4.0,16,0.00,,,0.00,WUHU216HW,2013-10-04 22:46:00,
2013-10-04 15:51:00,83.5,33.2,29.82,WNW,293,2.9,3.6,17,0.00,,,0.00,WUHU216HW,2013-10-04 22:51:00,
2013-10-04 15:56:00,83.3,33.0,29.81,North,0,0.4,2.9,17,0.00,,,0.00,WUHU216HW,2013-10-04 22:56:00,
2013-10-04 16:01:00,83.5,33.2,29.81,NW,315,0.7,2.0,17,0.00,,,0.00,WUHU216HW,2013-10-04 23:01:00,
2013-10-04 16:06:00,83.7,33.3,29.81,NW,315,1.8,2.7,17,0.00,,,0.00,WUHU216HW,2013-10-04 23:06:00,
2013-10-04 16:11:00,83.5,33.2,29.81,SW,225,0.9,4.0,17,0.00,,,0.00,WUHU216HW,2013-10-04 23:11:00,
2013-10-04 16:16:00,83.5,33.2,29.81,ENE,68,1.1,4.0,17,0.00,,,0.00,WUHU216HW,2013-10-04 23:16:00,
2013-10-04 16:21:00,83.5,33.2,29.81,NW,315,1.3,2.7,17,0.00,,,0.00,WUHU216HW,2013-10-04 23:21:00,
2013-10-04 16:26:00,83.7,33.3,29.81,NNW,338,0.4,2.2,17,0.00,,,0.00,WUHU216HW,2013-10-04 23:26:00,
2013-10-04 16:31:00,83.5,31.5,29.81,NNW,338,2.0,4.5,16,0.00,,,0.00,WUHU216HW,2013-10-04 23:31:00,
2013-10-04 16:36:00,83.2,33.0,29.81,NNW,338,1.3,4.5,17,0.00,,,0.00,WUHU216HW,2013-10-04 23:36:00,
2013-10-04 16:41:00,83.0,32.8,29.81,North,0,0.7,2.7,17,0.00,,,0.00,WUHU216HW,2013-10-04 23:41:00,
2013-10-04 16:46:00,83.2,33.0,29.81,North,0,1.1,2.2,17,0.00,,,0.00,WUHU216HW,2013-10-04 23:46:00,
2013-10-04 16:51:00,83.2,31.2,29.81,NNW,338,1.1,3.1,16,0.00,,,0.00,WUHU216HW,2013-10-04 23:51:00,
2013-10-04 16:56:00,82.8,32.7,29.81,North,0,1.1,3.1,17,0.00,,,0.00,WUHU216HW,2013-10-04 23:56:00,
2013-10-04 17:01:00,82.8,32.7,29.81,NNW,338,2.2,3.1,17,0.00,,,0.00,WUHU216HW,2013-10-05 00:01:00,
2013-10-04 17:06:00,82.6,30.8,29.81,North,0,1.3,2.9,16,0.00,,,0.00,WUHU216HW,2013-10-05 00:06:00,
2013-10-04 17:11:00,82.6,32.5,29.82,NNE,23,1.8,2.9,17,0.00,,,0.00,WUHU216HW,2013-10-05 00:11:00,
2013-10-04 17:16:00,82.4,30.7,29.82,NNE,23,1.6,2.7,16,0.00,,,0.00,WUHU216HW,2013-10-05 00:16:00,
2013-10-04 17:21:00,81.9,30.2,29.82,NNW,338,0.7,3.4,16,0.00,,,0.00,WUHU216HW,2013-10-05 00:21:00,
2013-10-04 17:26:00,81.7,31.8,29.82,NNE,23,1.6,3.4,17,0.00,,,0.00,WUHU216HW,2013-10-05 00:26:00,
2013-10-04 17:31:00,81.5,31.7,29.82,North,0,0.2,1.8,17,0.00,,,0.00,WUHU216HW,2013-10-05 00:31:00,
2013-10-04 17:36:00,81.4,31.5,29.82,NNW,338,1.1,1.8,17,0.00,,,0.00,WUHU216HW,2013-10-05 00:36:00,
2013-10-04 17:41:00,81.0,31.2,29.82,North,0,1.8,4.7,17,0.00,,,0.00,WUHU216HW,2013-10-05 00:41:00,
2013-10-04 17:46:00,80.8,32.8,29.82,North,0,1.1,4.7,18,0.00,,,0.00,WUHU216HW,2013-10-05 00:46:00,
2013-10-04 17:51:00,80.6,31.0,29.82,North,0,1.3,4.7,17,0.00,,,0.00,WUHU216HW,2013-10-05 00:51:00,
2013-10-04 17:56:00,80.3,30.6,29.82,NNW,338,0.4,3.1,17,0.00,,,0.00,WUHU216HW,2013-10-05 00:56:00,
2013-10-04 18:01:00,79.9,32.0,29.82,North,0,0.2,2.9,18,0.00,,,0.00,WUHU216HW,2013-10-05 01:01:00,
2013-10-04 18:06:00,79.7,30.2,29.82,NE,45,0.7,3.4,17,0.00,,,0.00,WUHU216HW,2013-10-05 01:06:00,
2013-10-04 18:11:00,79.4,31.5,29.82,NNW,338,1.8,3.4,18,0.00,,,0.00,WUHU216HW,2013-10-05 01:11:00,
2013-10-04 18:16:00,79.0,31.2,29.82,North,0,0.7,2.9,18,0.00,,,0.00,WUHU216HW,2013-10-05 01:16:00,
2013-10-04 18:21:00,78.7,30.9,29.83,NE,45,2.0,2.0,18,0.00,,,0.00,WUHU216HW,2013-10-05 01:21:00,
2013-10-04 18:26:00,78.3,30.6,29.83,ESE,113,1.1,4.0,18,0.00,,,0.00,WUHU216HW,2013-10-05 01:26:00,
2013-10-04 18:31:00,77.9,30.3,29.83,North,0,2.5,4.0,18,0.00,,,0.00,WUHU216HW,2013-10-05 01:31:00,
2013-10-04 18:36:00,77.6,30.1,29.83,North,0,0.2,2.5,18,0.00,,,0.00,WUHU216HW,2013-10-05 01:36:00,
2013-10-04 18:41:00,77.4,31.6,29.83,North,0,0.2,2.9,19,0.00,,,0.00,WUHU216HW,2013-10-05 01:41:00,
2013-10-04 18:46:00,76.9,31.1,29.83,NNE,23,0.9,2.9,19,0.00,,,0.00,WUHU216HW,2013-10-05 01:46:00,
2013-10-04 18:51:00,76.5,30.9,29.83,NNW,338,0.9,2.7,19,0.00,,,0.00,WUHU216HW,2013-10-05 01:51:00,
2013-10-04 18:56:00,76.3,30.7,29.84,NE,45,0.2,2.7,19,0.00,,,0.00,WUHU216HW,2013-10-05 01:56:00,
2013-10-04 19:01:00,76.0,33.1,29.84,East,90,0.4,2.5,21,0.00,,,0.00,WUHU216HW,2013-10-05 02:01:00,
2013-10-04 19:06:00,75.8,32.9,29.84,North,0,0.0,2.9,21,0.00,,,0.00,WUHU216HW,2013-10-05 02:06:00,
2013-10-04 19:11:00,75.4,32.7,29.84,NE,45,1.8,3.1,21,0.00,,,0.00,WUHU216HW,2013-10-05 02:11:00,
2013-10-04 19:16:00,75.2,32.5,29.84,North,0,0.0,3.1,21,0.00,,,0.00,WUHU216HW,2013-10-05 02:16:00,
2013-10-04 19:21:00,75.1,32.4,29.84,ENE,68,0.7,1.8,21,0.00,,,0.00,WUHU216HW,2013-10-05 02:21:00,
2013-10-04 19:26:00,74.7,32.1,29.84,NNE,23,0.4,0.7,21,0.00,,,0.00,WUHU216HW,2013-10-05 02:26:00,
2013-10-04 19:31:00,74.5,32.9,29.84,NNE,23,0.0,0.7,22,0.00,,,0.00,WUHU216HW,2013-10-05 02:31:00,
2013-10-04 19:36:00,74.2,32.7,29.85,NNE,23,0.0,0.7,22,0.00,,,0.00,WUHU216HW,2013-10-05 02:36:00,
2013-10-04 19:41:00,73.8,33.4,29.85,NNE,23,0.0,0.4,23,0.00,,,0.00,WUHU216HW,2013-10-05 02:41:00,
2013-10-04 19:46:00,73.3,33.0,29.85,NNE,23,0.0,0.4,23,0.00,,,0.00,WUHU216HW,2013-10-05 02:46:00,
2013-10-04 19:51:00,72.7,33.5,29.86,NNE,23,0.0,0.0,24,0.00,,,0.00,WUHU216HW,2013-10-05 02:51:00,
2013-10-04 19:56:00,72.2,33.0,29.86,North,0,0.0,0.0,24,0.00,,,0.00,WUHU216HW,2013-10-05 02:56:00,
2013-10-04 20:01:00,71.8,33.8,29.86,North,0,0.0,0.4,25,0.00,,,0.00,WUHU216HW,2013-10-05 03:01:00,
2013-10-04 20:06:00,71.5,33.4,29.86,North,0,0.0,0.4,25,0.00,,,0.00,WUHU216HW,2013-10-05 03:06:00,
2013-10-04 20:12:00,71.1,33.1,29.86,North,0,0.0,0.0,25,0.00,,,0.00,WUHU216HW,2013-10-05 03:12:00,
2013-10-04 20:17:00,70.7,33.9,29.86,SE,135,0.0,0.4,26,0.00,,,0.00,WUHU216HW,2013-10-05 03:17:00,
2013-10-04 20:22:00,70.6,32.7,29.86,SW,225,0.0,0.4,25,0.00,,,0.00,WUHU216HW,2013-10-05 03:22:00,
2013-10-04 20:27:00,70.4,32.5,29.86,SW,225,0.0,0.7,25,0.00,,,0.00,WUHU216HW,2013-10-05 03:27:00,
2013-10-04 20:32:00,70.2,33.4,29.87,SW,225,0.0,0.7,26,0.00,,,0.00,WUHU216HW,2013-10-05 03:32:00,
2013-10-04 20:37:00,69.8,33.0,29.87,West,270,0.0,0.2,26,0.00,,,0.00,WUHU216HW,2013-10-05 03:37:00,
2013-10-04 20:42:00,69.5,33.8,29.87,NW,315,0.0,0.4,27,0.00,,,0.00,WUHU216HW,2013-10-05 03:42:00,
2013-10-04 20:47:00,69.3,34.6,29.87,NW,315,0.0,0.4,28,0.00,,,0.00,WUHU216HW,2013-10-05 03:47:00,
2013-10-04 20:52:00,69.1,34.5,29.87,NW,315,0.0,0.0,28,0.00,,,0.00,WUHU216HW,2013-10-05 03:52:00,
2013-10-04 20:57:00,68.8,34.1,29.87,NW,315,0.0,0.0,28,0.00,,,0.00,WUHU216HW,2013-10-05 03:57:00,
2013-10-04 21:02:00,68.4,34.8,29.87,SSE,158,0.0,0.4,29,0.00,,,0.00,WUHU216HW,2013-10-05 04:02:00,
2013-10-04 21:07:00,68.0,34.5,29.87,SW,225,0.0,0.9,29,0.00,,,0.00,WUHU216HW,2013-10-05 04:07:00,
2013-10-04 21:12:00,68.0,35.5,29.87,SW,225,0.0,0.9,30,0.00,,,0.00,WUHU216HW,2013-10-05 04:12:00,
2013-10-04 21:17:00,67.7,35.2,29.87,SW,225,0.0,0.0,30,0.00,,,0.00,WUHU216HW,2013-10-05 04:17:00,
2013-10-04 21:22:00,67.3,34.9,29.87,SW,225,0.0,0.0,30,0.00,,,0.00,WUHU216HW,2013-10-05 04:22:00,
2013-10-04 21:27:00,67.1,35.5,29.88,SW,225,0.0,0.0,31,0.00,,,0.00,WUHU216HW,2013-10-05 04:27:00,
2013-10-04 21:32:00,66.8,35.2,29.88,SW,225,0.0,0.2,31,0.00,,,0.00,WUHU216HW,2013-10-05 04:32:00,
2013-10-04 21:37:00,66.6,35.0,29.88,SSW,203,0.2,1.6,31,0.00,,,0.00,WUHU216HW,2013-10-05 04:37:00,
2013-10-04 21:42:00,66.4,34.9,29.88,West,270,0.0,1.6,31,0.00,,,0.00,WUHU216HW,2013-10-05 04:42:00,
2013-10-04 21:47:00,66.2,34.7,29.88,West,270,0.0,0.4,31,0.00,,,0.00,WUHU216HW,2013-10-05 04:47:00,
2013-10-04 21:52:00,66.2,35.5,29.88,SSW,203,0.0,0.7,32,0.00,,,0.00,WUHU216HW,2013-10-05 04:52:00,
2013-10-04 21:57:00,65.9,35.1,29.88,SW,225,0.0,0.9,32,0.00,,,0.00,WUHU216HW,2013-10-05 04:57:00,
2013-10-04 22:02:00,65.7,35.0,29.89,SSW,203,0.2,1.3,32,0.00,,,0.00,WUHU216HW,2013-10-05 05:02:00,
2013-10-04 22:07:00,65.7,34.3,29.88,SW,225,0.0,1.6,31,0.00,,,0.00,WUHU216HW,2013-10-05 05:07:00,
2013-10-04 22:12:00,65.3,33.9,29.88,SSW,203,0.9,1.6,31,0.00,,,0.00,WUHU216HW,2013-10-05 05:12:00,
2013-10-04 22:17:00,65.2,33.8,29.89,SW,225,0.0,0.9,31,0.00,,,0.00,WUHU216HW,2013-10-05 05:17:00,
2013-10-04 22:22:00,65.2,33.8,29.89,SSW,203,0.4,1.8,31,0.00,,,0.00,WUHU216HW,2013-10-05 05:22:00,
2013-10-04 22:27:00,64.8,33.5,29.89,SW,225,1.1,1.8,31,0.00,,,0.00,WUHU216HW,2013-10-05 05:27:00,
2013-10-04 22:32:00,64.6,34.0,29.89,SSW,203,0.9,1.8,32,0.00,,,0.00,WUHU216HW,2013-10-05 05:32:00,
2013-10-04 22:37:00,64.4,33.8,29.89,SSW,203,0.7,1.8,32,0.00,,,0.00,WUHU216HW,2013-10-05 05:37:00,
2013-10-04 22:42:00,64.3,33.7,29.89,SSE,158,1.6,1.6,32,0.00,,,0.00,WUHU216HW,2013-10-05 05:42:00,
2013-10-04 22:47:00,64.1,33.5,29.89,South,180,0.4,1.8,32,0.00,,,0.00,WUHU216HW,2013-10-05 05:47:00,
2013-10-04 22:52:00,64.1,33.5,29.89,South,180,0.0,1.8,32,0.00,,,0.00,WUHU216HW,2013-10-05 05:52:00,
2013-10-04 22:57:00,63.7,33.9,29.89,WSW,248,0.0,0.9,33,0.00,,,0.00,WUHU216HW,2013-10-05 05:57:00,
2013-10-04 23:02:00,63.5,33.8,29.89,SW,225,0.0,0.9,33,0.00,,,0.00,WUHU216HW,2013-10-05 06:02:00,
2013-10-04 23:07:00,63.4,33.6,29.89,SW,225,0.0,0.2,33,0.00,,,0.00,WUHU216HW,2013-10-05 06:07:00,
2013-10-04 23:12:00,63.0,34.0,29.89,SW,225,0.0,0.0,34,0.00,,,0.00,WUHU216HW,2013-10-05 06:12:00,
2013-10-04 23:17:00,62.6,33.7,29.90,SW,225,0.0,0.0,34,0.00,,,0.00,WUHU216HW,2013-10-05 06:17:00,
2013-10-04 23:22:00,62.5,33.5,29.90,West,270,0.0,0.0,34,0.00,,,0.00,WUHU216HW,2013-10-05 06:22:00,
2013-10-04 23:27:00,62.3,34.0,29.90,West,270,0.0,0.0,35,0.00,,,0.00,WUHU216HW,2013-10-05 06:27:00,
2013-10-04 23:32:00,61.9,34.5,29.90,WNW,293,0.0,0.0,36,0.00,,,0.00,WUHU216HW,2013-10-05 06:32:00,
2013-10-04 23:37:00,61.6,34.8,29.90,NNE,23,0.0,0.2,37,0.00,,,0.00,WUHU216HW,2013-10-05 06:37:00,
2013-10-04 23:42:00,61.2,34.6,29.90,NNE,23,0.0,0.2,37,0.00,,,0.00,WUHU216HW,2013-10-05 06:42:00,
2013-10-04 23:47:00,60.8,34.2,29.90,NNE,23,0.0,0.0,37,0.00,,,0.00,WUHU216HW,2013-10-05 06:47:00,
2013-10-04 23:52:00,60.8,34.2,29.90,NNE,23,0.0,0.0,37,0.00,,,0.00,WUHU216HW,2013-10-05 06:52:00,
2013-10-04 23:57:00,60.5,33.9,29.90,NNE,23,0.0,0.0,37,0.00,,,0.00,WUHU216HW,2013-10-05 06:57:00,